Wetbulb
71.90 72.39 73.16 68.62 61.16 60.98 55.60 56.62 60.20 58.75 59.43 63.40 64.08 62.06 60.09 62.54 57.56 53.93 69.00 70.16 70.96 71.37 73.28 73.80 73.84 73.80 74.05 74.13 74.02 74.99 75.64 75.79 75.91 76.13 75.88 75.90 76.05 76.09 76.38 76.70 77.09 76.59 76.60 76.93 76.75 77.00 76.69 76.39 76.73
70.69 68.93 69.31 65.45 58.36 54.46 55.25 59.20 58.20 60.28 61.87 64.75 64.27 63.44 62.08 60.45 64.97 65.62 66.96 70.70 71.11 71.64 73.21 73.37 73.90 73.25 73.06 73.38 74.48 74.85 75.70 75.43 75.25 75.01 75.02 75.05 75.35 75.02 75.49 76.64 76.83 77.01 76.74 77.10 76.79 76.81 76.76 76.72 76.78
70.40 70.90 64.36 61.81 58.00 54.27 55.17 59.53 60.24 62.04 63.73 63.19 62.25 64.97 62.99 61.56 65.47 67.10 69.70 71.48 72.31 72.62 73.14 73.35 73.82 73.85 73.87 73.59 74.26 74.57 74.96 75.22 76.13 76.09 75.13 74.51 74.80 75.22 76.62 76.23 76.52 76.83 76.85 77.08 76.63 76.50 76.61 76.37 76.21
70.85 67.21 64.88 59.38 55.63 58.02 58.79 61.01 62.40 61.79 63.26 63.99 63.38 60.38 65.20 67.55 66.96 68.71 70.66 71.58 71.64 71.93 72.74 73.13 74.07 74.16 73.78 74.54 74.32 74.62 74.29 75.56 75.99 76.76 76.27 76.28 76.48 76.53 76.42 76.13 76.97 76.84 76.95 77.00 76.24 76.51 76.10 76.06 76.41
69.97 65.94 58.52 56.82 55.20 58.65 61.45 62.50 63.05 61.81 62.20 62.54 62.88 60.26 61.99 68.03 70.45 69.83 70.42 70.93 70.59 71.92 72.46 73.71 74.46 74.91 74.82 75.11 74.64 72.39 72.76 75.20 75.95 75.72 75.65 75.79 76.19 76.38 76.60 76.79 77.12 76.81 76.54 76.43 76.32 76.20 76.46 76.37 76.34
64.20 65.03 55.38 52.92 55.82 59.31 62.01 62.74 63.27 62.20 62.60 62.46 61.80 61.83 62.67 69.17 68.56 69.48 70.44 70.56 71.12 71.66 73.64 73.91 73.12 74.23 75.11 74.77 74.49 74.86 74.54 75.04 75.67 75.43 74.76 74.72 75.12 76.17 76.65 76.77 76.43 76.57 76.41 76.19 76.18 76.22 76.15 76.23 76.09
62.10 59.72 54.20 54.86 56.06 57.52 60.03 62.51 62.05 61.92 61.59 61.60 64.62 59.98 63.96 66.61 69.47 69.72 70.42 71.28 72.28 73.56 74.34 74.80 74.72 73.84 73.67 74.52 73.89 74.40 75.29 75.74 75.71 75.22 75.09 74.87 75.81 76.22 76.79 76.85 76.69 77.07 76.66 76.02 75.97 76.09 75.95 75.82 75.57
64.84 61.11 54.81 55.03 54.89 55.95 60.44 61.60 62.96 63.07 62.55 66.30 65.87 60.11 61.54 66.92 70.66 70.65 70.81 71.89 72.65 73.48 74.17 75.05 75.66 75.39 74.37 75.01 74.87 74.65 75.51 75.75 76.20 76.37 75.83 75.77 76.18 76.50 76.48 77.11 76.82 75.91 75.58 75.47 75.36 75.38 75.08 75.27 75.52
66.59 58.79 54.19 54.76 55.06 57.02 61.60 59.88 63.02 66.22 64.73 65.13 65.78 64.83 66.82 69.30 70.88 69.70 70.07 71.13 72.15 72.82 73.88 74.31 74.69 75.74 76.19 75.88 76.01 75.89 76.43 76.59 76.20 76.42 76.06 75.95 75.93 76.17 76.01 76.63 76.19 75.88 75.74 75.58 75.27 75.27 74.97 74.68 74.36
63.20 59.65 57.25 60.69 59.59 58.86 61.54 61.91 62.97 62.81 63.53 63.04 63.62 66.65 68.57 69.71 69.50 68.14 67.63 68.13 69.75 71.40 73.21 74.62 74.40 75.20 76.01 75.26 75.91 76.17 75.90 76.07 76.20 75.94 76.24 75.59 76.70 76.61 76.01 76.20 76.46 76.70 76.45 76.33 76.37 75.77 75.49 74.16 74.63
62.45 59.42 61.64 61.17 61.85 62.46 61.91 61.96 64.01 61.89 61.15 63.54 62.54 64.95 67.48 68.60 68.92 68.54 67.50 68.21 69.06 71.34 73.08 74.05 74.39 75.35 75.68 75.34 75.24 74.88 75.04 75.04 74.96 75.66 75.56 75.52 75.15 74.83 74.42 73.97 74.61 74.74 73.78 73.91 74.18 74.48 74.64 73.62 75.28
60.14 62.13 62.16 61.97 62.98 62.17 60.63 62.80 61.71 62.44 63.45 66.57 66.09 67.06 67.52 67.64 67.79 68.11 67.05 68.54 69.90 71.04 72.25 73.68 73.86 74.41 75.01 74.65 73.81 73.77 73.53 73.97 74.33 74.44 74.69 75.23 73.91 71.85 73.09 73.16 73.56 74.60 75.23 75.32 75.96 75.59 76.66 76.32 76.55
60.69 61.50 62.53 63.64 63.44 62.74 63.13 62.01 62.99 62.94 66.06 67.07 66.57 67.04 66.83 67.15 67.71 68.28 68.22 69.32 70.33 70.35 71.99 73.08 73.40 73.36 74.60 74.35 74.46 74.41 73.81 73.95 73.86 74.14 73.98 74.47 73.69 72.74 73.34 74.08 74.51 75.53 76.60 76.74 76.61 76.64 76.90 76.56 75.78
63.08 62.48 62.09 63.22 63.07 62.45 60.01 61.20 63.15 63.89 66.55 65.31 65.46 66.00 66.99 67.34 67.49 68.03 68.49 68.65 69.54 70.74 71.85 72.48 72.22 72.64 73.85 73.51 74.45 74.12 74.08 73.23 74.03 74.06 74.14 73.81 73.36 72.54 73.08 73.86 75.06 75.69 76.15 76.62 76.83 76.78 75.33 74.84 75.02
63.82 60.33 61.95 62.33 61.80 60.52 61.95 58.70 59.77 64.70 65.45 65.01 64.78 65.72 66.67 67.55 68.49 68.32 69.38 69.23 69.58 70.96 72.13 71.96 72.44 72.02 73.18 73.32 73.58 73.64 72.68 72.67 72.89 73.65 74.60 73.79 72.32 72.58 72.52 74.35 75.84 76.31 76.75 77.32 76.92 75.42 75.35 74.56 74.34
59.14 59.88 55.96 61.04 62.30 61.97 61.83 55.50 61.31 64.05 64.03 64.45 65.15 65.47 66.05 67.31 67.88 69.18 69.88 70.38 70.79 71.03 71.25 72.29 72.20 71.44 72.79 73.27 72.98 73.23 73.29 72.63 72.75 73.58 73.57 74.18 73.01 72.96 74.45 75.44 75.75 76.17 77.45 77.50 76.16 74.99 74.85 74.52 74.62
57.14 52.82 53.54 56.40 61.49 60.92 59.19 55.88 62.06 63.93 63.77 63.65 64.70 65.39 65.76 66.37 67.83 69.03 69.97 70.63 70.95 71.19 71.29 71.83 72.08 71.90 71.53 73.07 73.36 72.76 73.04 72.64 72.74 73.89 74.51 73.88 72.76 73.57 75.57 74.94 75.18 76.76 76.89 76.99 75.22 74.70 75.57 75.06 75.28
51.18 52.61 54.10 54.56 58.78 60.26 58.05 56.66 61.21 63.46 62.54 63.36 64.75 65.14 65.11 65.59 66.83 68.96 69.82 70.90 71.05 70.17 71.31 71.80 71.56 71.79 71.38 71.80 73.22 73.04 72.54 72.54 73.16 73.61 73.50 72.75 73.02 73.45 74.19 73.56 75.02 76.13 76.98 76.27 75.57 75.07 74.94 75.36 75.07
54.59 53.40 52.49 57.10 60.85 58.53 57.82 57.05 59.54 62.21 62.89 62.80 62.97 64.83 64.86 65.83 67.01 68.93 69.78 70.75 70.62 69.57 69.44 70.69 69.64 71.00 70.48 70.61 71.37 71.38 70.79 71.63 72.57 74.27 74.00 72.54 73.67 74.05 74.15 73.61 74.90 76.65 77.82 76.69 76.11 75.06 74.47 73.76 74.07
52.41 50.27 53.09 57.64 60.66 58.38 57.33 56.84 59.36 59.75 62.77 63.63 61.77 62.87 64.83 66.17 67.29 68.26 69.13 70.24 70.30 70.15 69.90 69.77 70.05 70.83 72.24 71.83 72.56 72.84 72.41 73.04 74.19 74.15 74.51 74.22 73.81 74.02 72.67 73.38 74.55 75.23 76.78 76.10 75.00 74.66 72.93 73.38 74.07
51.73 51.23 53.89 54.03 59.17 59.47 57.19 55.07 56.80 59.96 61.48 63.01 62.95 63.53 65.15 65.46 66.14 67.33 68.15 69.51 70.49 70.26 70.08 70.25 70.22 71.52 73.20 73.45 73.03 72.69 73.44 73.46 73.11 72.90 73.66 74.75 75.32 73.92 74.17 72.57 73.23 74.48 75.43 76.09 76.21 75.95 73.37 71.52 73.61
48.72 55.86 56.88 56.98 54.94 51.79 57.09 48.54 54.72 58.09 58.80 60.29 62.96 62.98 64.79 65.54 66.75 67.64 67.82 68.75 70.08 70.66 71.08 71.60 71.04 72.01 73.25 74.00 73.21 73.06 71.60 71.91 72.40 73.16 73.97 75.11 75.87 75.04 73.89 71.88 72.87 74.12 75.25 75.31 75.96 75.81 76.05 74.99 73.16
50.42 58.34 57.80 56.38 55.10 53.34 53.35 51.62 53.11 57.35 56.33 58.78 61.50 63.43 65.13 66.08 66.94 66.97 67.67 68.77 69.97 71.11 71.06 71.87 71.80 72.11 73.52 73.85 74.03 73.63 72.70 72.64 73.95 73.37 74.19 75.74 75.88 75.43 73.75 71.69 72.48 73.26 74.80 75.02 74.22 75.88 75.45 75.36 74.36
58.41 56.63 55.35 54.68 54.12 46.87 48.67 52.03 52.09 55.57 57.72 59.07 61.19 63.01 64.61 65.52 66.76 67.69 68.93 69.32 69.37 70.93 71.18 71.80 72.06 72.47 73.31 73.70 73.90 73.58 73.24 73.20 72.90 73.04 72.82 74.01 74.77 74.78 74.65 72.83 71.89 72.57 73.56 74.25 75.25 77.30 76.80 77.93 77.79
55.78 53.70 48.87 46.85 46.78 44.36 50.76 51.50 52.82 57.07 59.22 60.87 61.42 62.38 63.97 65.86 66.62 67.36 67.48 67.92 68.63 69.42 70.35 71.03 72.04 72.25 73.06 73.15 73.55 73.81 73.92 74.30 74.24 73.87 73.74 74.28 73.76 74.07 75.05 74.69 74.14 71.62 74.40 73.26 74.41 77.51 77.58 77.25 77.03
54.27 52.28 47.05 39.54 41.58 45.67 50.34 47.47 52.62 57.90 61.52 61.90 62.07 63.37 64.36 64.43 66.18 67.68 67.97 68.28 68.73 69.39 70.40 70.85 71.64 72.33 72.62 72.88 73.51 74.27 74.46 73.35 73.59 74.62 73.86 73.75 74.19 74.58 76.33 75.19 75.57 74.11 74.80 74.02 72.90 76.49 76.62 77.25 77.09
50.47 50.45 49.57 46.87 47.38 46.90 49.17 52.01 56.05 58.41 60.42 61.94 61.50 62.13 63.28 64.30 64.50 66.48 68.38 68.69 69.11 69.60 70.47 71.20 71.78 72.57 72.91 72.87 73.43 73.69 74.28 73.99 73.81 74.77 74.98 74.57 75.46 75.22 75.77 75.58 75.49 75.84 75.78 75.94 74.59 75.67 76.35 76.99 77.14
50.87 52.04 47.81 50.10 42.46 40.23 46.79 48.22 50.33 55.38 57.51 59.99 61.44 61.45 62.85 64.31 64.99 65.71 67.36 68.98 69.70 70.16 70.99 71.59 72.12 72.25 72.76 73.14 73.39 73.42 74.13 74.52 74.68 74.77 74.43 74.93 75.24 75.71 75.77 75.82 76.05 76.13 76.26 76.67 76.33 76.13 76.86 77.21 76.34
50.28 50.34 49.48 50.69 48.41 44.32 42.77 46.72 55.76 57.28 58.44 58.80 60.31 61.79 63.02 63.64 64.70 66.22 67.33 69.05 70.11 70.43 70.85 71.19 71.86 71.99 72.38 72.92 73.53 73.58 73.81 74.22 74.74 74.39 74.66 74.91 75.40 75.60 75.66 75.96 75.86 76.08 76.24 76.82 77.10 76.99 76.81 76.28 76.32
50.41 50.96 52.26 47.19 46.52 48.25 47.62 47.65 55.83 58.77 59.42 60.54 61.79 62.88 64.19 63.64 65.31 66.35 67.34 68.43 69.06 70.03 70.87 70.80 71.62 71.81 72.41 72.90 73.17 73.31 73.83 74.16 73.69 74.06 74.39 75.11 74.92 75.78 75.78 76.22 76.58 76.53 76.34 76.73 76.58 75.83 75.51 75.85 75.57
MSLP
1010.78 1010.77 1010.86 1010.90 1011.05 1010.00 1009.99 1010.28 1010.24 1010.43 1010.75 1011.10 1011.25 1011.62 1012.22 1013.08 1013.13 1014.31 1015.22 1015.24 1015.03 1015.09 1015.34 1015.45 1015.71 1015.83 1015.96 1016.12 1016.28 1016.37 1016.32 1016.38 1016.56 1016.51 1016.60 1016.66 1016.82 1016.93 1016.98 1017.19 1017.10 1017.26 1017.40 1017.64 1017.62 1017.63 1017.70 1017.81 1018.00
1010.64 1010.84 1010.95 1010.46 1010.39 1010.04 1010.55 1010.62 1010.48 1010.56 1010.96 1011.38 1011.71 1012.07 1012.46 1013.47 1014.05 1014.65 1014.94 1015.33 1015.10 1015.29 1015.39 1015.55 1015.84 1015.92 1015.99 1016.17 1016.35 1016.49 1016.52 1016.67 1016.58 1016.59 1016.68 1016.82 1017.03 1017.11 1017.20 1017.09 1017.31 1017.51 1017.72 1017.70 1017.78 1017.87 1017.94 1018.02 1018.01
1010.59 1010.54 1010.51 1010.28 1010.65 1010.75 1010.88 1011.16 1011.09 1011.01 1011.26 1011.36 1011.98 1012.55 1013.04 1014.01 1014.58 1014.68 1015.10 1015.31 1015.45 1015.53 1015.60 1015.79 1015.98 1016.06 1016.17 1016.31 1016.52 1016.65 1016.86 1016.72 1016.76 1016.71 1016.87 1017.09 1017.10 1017.28 1017.33 1017.49 1017.68 1017.79 1017.87 1017.86 1018.16 1018.05 1018.28 1018.28 1018.31
1010.25 1010.44 1010.57 1010.69 1010.92 1011.64 1011.59 1011.81 1011.62 1011.13 1011.27 1011.74 1012.25 1013.01 1013.91 1014.36 1014.46 1014.78 1015.26 1015.26 1015.42 1015.55 1015.80 1016.13 1016.22 1016.26 1016.42 1016.60 1016.83 1016.94 1017.11 1016.94 1016.94 1017.04 1017.12 1017.26 1017.32 1017.50 1017.63 1017.76 1017.89 1018.03 1017.92 1018.18 1018.31 1018.28 1018.55 1018.55 1018.72
1010.34 1010.48 1010.73 1011.36 1012.01 1012.21 1012.40 1012.37 1012.00 1011.24 1011.54 1012.04 1012.43 1013.29 1014.01 1014.76 1014.88 1015.17 1015.36 1015.43 1015.49 1015.70 1016.08 1016.20 1016.52 1016.57 1016.70 1016.74 1017.08 1017.19 1017.30 1017.22 1017.16 1017.36 1017.54 1017.47 1017.71 1017.81 1017.69 1017.97 1018.02 1018.23 1018.27 1018.36 1018.50 1018.70 1018.70 1018.81 1018.58
1010.49 1010.83 1011.29 1011.90 1012.43 1012.64 1012.80 1012.87 1012.33 1011.69 1011.83 1012.21 1012.80 1013.39 1014.66 1015.14 1015.11 1015.35 1015.59 1015.67 1015.63 1015.89 1016.30 1016.56 1016.76 1016.86 1016.89 1016.96 1017.21 1017.41 1017.63 1017.26 1017.51 1017.66 1017.80 1017.85 1017.95 1017.80 1017.97 1018.21 1018.36 1018.41 1018.46 1018.55 1018.78 1018.81 1018.79 1018.78 1018.74
1010.52 1011.22 1012.26 1012.58 1012.87 1012.97 1013.18 1012.99 1012.72 1012.27 1011.97 1012.27 1012.89 1013.59 1014.84 1015.02 1015.33 1015.53 1015.79 1015.98 1016.02 1016.20 1016.47 1016.73 1016.98 1017.03 1017.08 1017.22 1017.47 1017.51 1017.61 1017.71 1017.85 1017.96 1018.16 1018.27 1018.44 1018.38 1018.32 1018.39 1018.46 1018.51 1018.68 1018.72 1018.89 1018.88 1018.97 1018.98 1019.04
1010.56 1011.39 1012.38 1012.98 1013.16 1013.40 1013.54 1013.26 1013.13 1012.27 1012.16 1012.40 1012.64 1013.11 1014.25 1014.70 1015.38 1015.63 1015.87 1016.21 1016.32 1016.42 1016.61 1017.00 1017.18 1017.24 1017.27 1017.35 1017.58 1017.76 1017.86 1018.02 1017.80 1017.99 1018.33 1018.31 1018.71 1018.58 1018.66 1018.68 1018.71 1018.68 1018.82 1018.90 1018.91 1018.90 1019.08 1019.13 1019.14
1010.66 1011.21 1012.14 1012.71 1013.13 1013.48 1013.67 1013.31 1012.93 1012.40 1012.28 1012.63 1012.93 1013.07 1013.57 1014.68 1015.36 1015.64 1016.08 1016.41 1016.65 1016.85 1017.02 1016.92 1017.16 1017.28 1017.37 1017.32 1017.62 1017.76 1017.88 1017.91 1017.96 1018.28 1018.44 1018.57 1018.68 1018.63 1018.49 1018.92 1018.83 1018.77 1018.84 1018.80 1018.82 1018.96 1019.04 1019.10 1019.13
1010.38 1011.09 1011.70 1012.19 1012.76 1013.23 1013.74 1013.62 1012.97 1012.60 1012.49 1012.99 1013.47 1013.94 1014.34 1014.92 1015.28 1015.49 1015.93 1016.34 1016.82 1016.93 1017.33 1017.48 1017.42 1017.46 1017.46 1017.51 1017.89 1018.01 1018.18 1018.21 1018.33 1018.60 1018.76 1018.91 1019.02 1018.94 1018.92 1019.05 1019.05 1019.01 1018.95 1018.77 1018.96 1018.98 1019.05 1018.91 1018.59
1010.53 1011.08 1011.68 1012.36 1012.69 1013.19 1013.61 1013.45 1013.16 1012.67 1012.42 1012.68 1013.20 1013.88 1014.52 1014.94 1015.42 1015.66 1015.88 1016.21 1016.54 1016.88 1017.28 1017.59 1017.75 1017.74 1017.74 1017.82 1017.97 1018.06 1018.23 1018.44 1018.68 1018.99 1019.10 1019.13 1019.10 1019.09 1019.02 1019.05 1018.94 1018.92 1018.91 1018.66 1018.83 1018.78 1018.55 1018.52 1018.54
1010.45 1011.27 1011.73 1012.47 1013.00 1013.35 1013.38 1013.49 1013.23 1012.91 1012.59 1012.48 1013.06 1013.99 1014.58 1014.97 1015.24 1015.52 1015.92 1016.40 1016.70 1016.93 1017.26 1017.67 1017.84 1017.96 1017.93 1017.99 1018.13 1018.27 1018.30 1018.45 1018.65 1019.10 1019.35 1019.21 1019.01 1019.28 1019.19 1019.06 1019.29 1019.08 1019.10 1018.95 1018.81 1018.63 1018.66 1018.54 1018.59
1010.55 1011.50 1012.03 1012.71 1013.20 1013.55 1013.66 1013.33 1012.95 1012.91 1012.84 1012.92 1013.38 1014.09 1014.54 1015.01 1015.35 1015.65 1015.95 1016.42 1016.69 1016.92 1017.37 1017.78 1017.92 1018.16 1018.17 1018.20 1018.21 1018.36 1018.48 1018.69 1018.89 1019.21 1019.27 1019.21 1019.12 1019.27 1019.40 1019.49 1019.19 1019.21 1019.11 1018.77 1018.75 1018.82 1018.69 1018.65 1018.58
1010.94 1011.49 1012.21 1012.70 1013.19 1013.62 1013.72 1013.56 1013.32 1013.55 1013.34 1013.49 1013.67 1013.98 1014.53 1015.00 1015.28 1015.57 1015.92 1016.26 1016.56 1016.95 1017.45 1017.87 1018.08 1018.20 1018.28 1018.28 1018.37 1018.42 1018.54 1018.71 1018.90 1019.12 1019.31 1019.50 1019.43 1019.60 1019.48 1019.39 1019.13 1019.05 1019.16 1018.97 1018.93 1018.80 1018.68 1018.79 1018.66
1010.96 1011.56 1012.11 1012.64 1013.03 1013.39 1013.72 1013.66 1013.39 1013.53 1013.75 1013.73 1013.89 1014.25 1014.57 1014.88 1015.27 1015.28 1015.64 1016.05 1016.36 1016.82 1017.45 1017.87 1018.12 1018.16 1018.28 1018.43 1018.49 1018.53 1018.57 1018.77 1018.95 1019.25 1019.43 1019.55 1019.75 1019.85 1019.95 1019.54 1019.10 1019.20 1019.21 1019.16 1019.03 1019.03 1019.02 1018.84 1018.84
1011.01 1011.61 1011.83 1012.45 1012.89 1013.32 1013.47 1013.47 1013.80 1014.09 1014.20 1013.99 1014.09 1014.22 1014.47 1014.71 1014.90 1015.12 1015.57 1015.91 1016.32 1016.65 1017.38 1017.95 1018.04 1018.23 1018.41 1018.67 1018.72 1018.73 1018.79 1018.89 1019.13 1019.41 1019.52 1019.66 1019.88 1020.04 1019.88 1019.46 1019.29 1019.40 1019.16 1018.97 1018.91 1019.04 1019.15 1019.23 1019.18
1010.92 1011.03 1011.68 1012.36 1012.66 1012.95 1013.24 1013.19 1013.49 1014.03 1014.25 1014.17 1014.27 1014.16 1014.19 1014.49 1014.68 1014.85 1015.27 1015.74 1016.11 1016.61 1017.08 1017.76 1018.21 1018.33 1018.54 1018.76 1018.95 1018.98 1019.07 1019.00 1019.23 1019.48 1019.54 1019.75 1019.89 1020.06 1019.92 1019.66 1019.50 1019.48 1019.09 1018.96 1018.99 1019.15 1019.35 1019.43 1019.43
1009.99 1010.68 1011.41 1011.62 1012.26 1012.73 1012.88 1013.13 1013.48 1013.91 1014.25 1014.10 1014.15 1014.11 1014.08 1014.19 1014.08 1014.35 1015.02 1015.47 1015.93 1016.54 1016.91 1017.60 1018.09 1018.56 1018.75 1018.75 1019.05 1019.14 1019.10 1019.13 1019.29 1019.47 1019.53 1019.74 1019.84 1020.01 1020.05 1019.84 1019.63 1019.37 1019.04 1019.07 1019.13 1019.41 1019.72 1019.77 1019.72
1009.87 1010.43 1010.82 1011.33 1011.97 1012.36 1012.60 1012.89 1013.16 1013.56 1013.92 1014.02 1014.28 1013.86 1013.84 1013.69 1014.09 1014.19 1014.71 1015.23 1015.74 1016.40 1016.80 1017.29 1018.01 1018.46 1018.74 1018.79 1018.97 1019.05 1018.81 1019.09 1019.25 1019.27 1019.51 1019.66 1019.78 1019.93 1020.07 1019.91 1019.66 1019.34 1019.19 1019.28 1019.45 1019.75 1019.90 1019.87 1019.99
1009.51 1009.90 1010.48 1011.27 1011.79 1012.06 1012.36 1012.37 1012.77 1013.51 1013.27 1013.44 1013.80 1013.93 1013.65 1013.66 1013.83 1014.07 1014.43 1014.94 1015.41 1015.96 1016.51 1017.05 1017.61 1018.26 1018.69 1018.79 1018.72 1018.64 1018.71 1018.81 1018.93 1019.04 1019.34 1019.51 1019.70 1019.91 1020.01 1020.02 1019.75 1019.62 1019.37 1019.59 1019.74 1019.90 1019.90 1020.03 1020.08
1008.98 1009.49 1010.15 1010.58 1011.40 1011.78 1011.92 1011.90 1012.45 1012.94 1013.20 1013.48 1013.60 1013.38 1013.31 1013.38 1013.46 1013.73 1014.11 1014.43 1014.98 1015.44 1016.02 1016.60 1017.27 1017.82 1018.43 1018.67 1018.75 1018.60 1018.57 1018.79 1018.98 1019.07 1019.16 1019.30 1019.55 1019.80 1019.92 1019.93 1019.96 1019.82 1019.72 1019.61 1019.86 1019.91 1019.98 1019.73 1019.97
1008.43 1009.23 1009.74 1010.25 1010.74 1010.84 1011.46 1011.22 1011.76 1012.17 1012.48 1013.02 1012.98 1012.98 1012.72 1012.81 1013.01 1013.22 1013.58 1013.96 1014.32 1014.74 1015.46 1016.19 1016.92 1017.54 1018.14 1018.52 1018.59 1018.34 1017.98 1018.25 1018.46 1018.70 1018.91 1018.95 1019.36 1019.60 1019.81 1019.97 1020.00 1019.94 1019.78 1019.96 1019.88 1019.87 1019.93 1019.93 1019.68
1008.76 1009.24 1009.48 1009.94 1010.27 1010.64 1010.96 1010.97 1011.04 1011.68 1011.64 1011.73 1012.11 1011.90 1012.12 1012.21 1012.24 1012.48 1012.91 1013.30 1013.79 1014.40 1014.90 1015.68 1016.50 1017.21 1017.70 1018.24 1018.34 1018.30 1018.13 1018.19 1018.51 1018.68 1018.85 1019.09 1019.26 1019.47 1019.67 1019.94 1020.09 1020.05 1019.78 1019.89 1020.10 1020.05 1020.10 1020.05 1019.74
1008.90 1009.21 1009.50 1009.89 1010.21 1009.74 1010.73 1010.65 1009.64 1010.27 1010.35 1010.38 1011.11 1011.30 1011.43 1011.74 1011.92 1012.01 1012.53 1013.01 1013.50 1014.04 1014.52 1015.22 1016.07 1016.64 1017.29 1017.79 1018.17 1018.28 1018.22 1018.28 1018.34 1018.57 1018.63 1018.89 1019.12 1019.27 1019.55 1019.68 1019.98 1020.09 1020.00 1020.06 1020.02 1019.96 1020.14 1020.00 1019.88
1008.57 1008.46 1008.86 1009.29 1009.59 1009.69 1010.58 1010.28 1009.02 1009.40 1009.86 1010.10 1010.22 1010.45 1010.66 1011.19 1011.46 1011.64 1012.09 1012.59 1013.10 1013.62 1014.09 1014.66 1015.56 1016.16 1016.77 1017.26 1017.76 1018.03 1018.23 1018.31 1018.21 1018.33 1018.47 1018.69 1018.77 1018.94 1019.24 1019.53 1019.66 1019.71 1019.94 1020.16 1020.17 1020.13 1020.09 1019.95 1019.76
1008.37 1008.45 1008.23 1008.67 1009.33 1009.72 1010.44 1009.52 1008.82 1009.32 1009.53 1009.86 1010.09 1009.91 1010.03 1010.17 1010.62 1011.07 1011.36 1011.96 1012.66 1013.19 1013.80 1014.27 1014.89 1015.55 1016.24 1016.71 1017.22 1017.66 1017.98 1018.05 1018.08 1018.13 1018.30 1018.45 1018.47 1018.51 1018.78 1019.25 1019.42 1019.56 1019.69 1019.91 1020.05 1019.89 1019.83 1019.78 1019.73
1008.55 1008.77 1008.83 1008.97 1010.12 1009.70 1009.53 1009.21 1008.73 1009.04 1009.22 1009.26 1009.44 1009.53 1009.52 1009.89 1010.37 1010.77 1011.26 1011.59 1012.03 1012.74 1013.17 1013.68 1014.24 1014.95 1015.60 1016.10 1016.77 1017.29 1017.61 1017.92 1017.84 1018.10 1018.25 1018.32 1018.44 1018.43 1018.60 1018.90 1019.13 1019.34 1019.48 1019.60 1019.82 1019.81 1019.77 1019.77 1019.82
1007.88 1008.63 1008.89 1008.79 1008.98 1008.94 1009.02 1008.91 1008.34 1008.51 1008.72 1008.98 1008.98 1009.32 1009.81 1010.07 1010.34 1010.57 1011.07 1011.47 1011.86 1012.36 1012.93 1013.45 1013.93 1014.43 1014.81 1015.55 1016.13 1016.64 1017.03 1017.34 1017.61 1017.82 1018.00 1018.07 1018.16 1018.29 1018.47 1018.72 1018.77 1018.93 1019.13 1019.24 1019.46 1019.56 1019.65 1019.75 1019.70
1008.49 1008.42 1009.04 1009.02 1009.18 1008.62 1008.55 1008.23 1008.26 1008.48 1008.95 1009.12 1009.34 1009.64 1009.99 1010.28 1010.44 1010.58 1010.89 1011.52 1011.79 1012.35 1012.81 1013.16 1013.59 1014.13 1014.60 1015.12 1015.58 1016.05 1016.51 1016.89 1017.23 1017.40 1017.60 1017.85 1017.96 1018.03 1018.21 1018.41 1018.56 1018.67 1018.79 1018.89 1019.14 1019.12 1019.29 1019.48 1019.45
1008.04 1008.09 1008.15 1007.97 1009.13 1009.29 1008.72 1008.06 1008.23 1008.74 1009.16 1009.57 1009.71 1009.93 1010.28 1010.65 1010.58 1010.43 1010.75 1011.09 1011.64 1012.10 1012.52 1012.77 1013.01 1013.36 1013.68 1014.38 1015.09 1015.46 1015.96 1016.41 1016.71 1016.94 1017.16 1017.37 1017.65 1017.66 1017.85 1018.00 1018.19 1018.38 1018.48 1018.66 1018.82 1018.81 1018.81 1019.05 1019.04
Wind_Speed
6 5 2 2 2 1 4 4 2 7 6 2 8 2 4 7 5 7 5 2 8 8 7 6 5 6 7 4 5 7 10 12 11 12 11 12 11 11 11 12 13 14 16 16 15 15 13 13 12
6 3 1 1 1 4 4 5 6 3 7 10 9 6 5 6 5 9 5 6 8 8 7 7 7 8 7 6 8 10 11 12 12 11 11 12 10 10 10 14 14 17 15 15 15 14 13 12 13
5 3 2 2 2 4 4 9 9 11 11 5 4 7 3 4 5 4 8 10 10 9 8 8 9 8 8 9 10 9 11 11 12 13 12 11 11 12 12 14 14 15 13 15 13 13 12 12 11
4 2 2 1 11 5 3 4 6 9 7 6 9 8 6 6 2 7 12 11 11 10 9 9 11 10 10 10 13 12 9 9 10 12 12 12 13 13 14 14 14 14 14 13 13 12 12 11 8
2 0 3 4 4 4 3 4 6 5 5 6 1 6 6 5 9 14 12 10 11 10 8 8 10 11 11 11 17 16 10 7 11 15 15 14 14 14 13 13 14 13 12 12 11 11 12 10 11
2 1 3 2 5 3 3 6 5 8 7 6 8 7 3 5 12 11 11 10 9 9 8 6 11 9 12 16 11 17 14 11 14 19 20 17 12 11 14 13 12 12 11 12 12 11 10 11 12
3 3 2 2 5 3 3 3 5 5 6 7 5 5 4 7 10 11 10 9 8 7 7 9 9 7 11 13 12 10 13 13 15 18 18 17 14 12 14 13 13 13 11 12 11 9 10 10 8
2 3 5 1 4 2 1 4 3 4 7 5 2 6 6 11 10 10 9 8 8 8 7 8 8 6 6 6 14 12 13 14 14 16 16 16 15 14 13 12 12 13 11 10 8 10 8 7 6
1 3 2 4 6 4 2 3 2 4 2 4 6 4 9 15 12 11 8 7 7 7 5 6 7 6 7 7 9 11 13 13 13 12 13 11 8 9 11 11 12 12 10 9 7 8 5 5 5
2 2 2 2 5 6 7 2 1 2 7 4 7 10 16 14 13 12 10 8 6 6 6 5 6 6 5 6 7 7 7 6 6 7 8 6 6 7 8 9 9 10 8 7 7 6 5 5 2
2 3 4 5 10 7 6 0 1 2 10 3 9 14 14 14 11 10 9 8 7 6 5 6 5 5 5 5 4 3 4 4 5 6 5 5 4 4 4 3 4 4 4 3 4 5 3 3 1
3 5 5 9 9 7 4 1 3 4 2 4 14 14 13 12 11 10 9 8 7 7 5 5 6 4 4 4 4 4 4 4 4 5 4 3 3 4 4 4 3 2 2 2 2 2 1 4 4
7 6 9 11 8 7 3 3 6 7 2 8 15 14 12 10 9 7 7 7 7 7 6 5 6 4 4 4 3 3 4 3 4 4 4 3 4 4 3 3 2 1 1 1 1 1 1 3 4
6 12 13 6 9 5 4 2 2 3 7 12 14 14 11 10 10 8 8 8 8 6 7 6 5 5 5 3 2 3 3 4 3 3 3 4 3 3 3 2 2 3 3 3 2 2 2 3 2
13 10 6 6 6 4 6 3 5 3 6 12 13 11 11 9 9 10 8 8 8 7 7 7 7 5 5 4 3 2 2 4 3 2 2 4 4 3 3 2 2 2 1 1 1 2 3 4 5
4 4 3 6 5 3 6 3 6 2 9 11 12 11 10 11 10 9 8 8 7 7 9 8 6 6 5 4 3 3 2 2 3 2 0 2 3 3 1 2 2 2 0 1 1 1 2 3 2
3 2 3 5 5 4 7 1 6 6 6 9 11 12 11 9 11 10 9 9 9 9 8 9 8 8 6 6 3 3 3 3 3 3 1 2 3 2 1 1 2 2 1 2 3 3 1 1 1
3 3 2 3 8 6 6 3 6 10 9 11 13 13 11 11 15 12 10 8 9 8 9 7 7 5 5 4 3 2 3 3 3 3 2 4 3 2 1 2 4 3 2 3 3 3 3 1 2
3 2 1 1 6 6 7 4 9 10 13 10 8 15 14 14 8 10 10 10 9 9 9 9 8 7 5 6 4 3 5 4 4 3 5 4 3 2 1 3 3 2 0 3 4 3 2 1 1
6 4 0 4 6 3 4 6 8 7 14 13 10 12 14 12 12 12 11 10 10 11 10 9 10 10 8 5 4 3 4 3 2 3 4 5 4 2 2 3 2 3 2 4 4 4 3 1 1
8 4 4 2 5 2 2 3 5 7 8 10 7 8 10 13 14 12 12 12 12 12 12 10 10 9 8 6 4 3 4 3 3 4 4 5 5 4 3 3 1 1 2 1 2 2 3 1 1
10 6 9 9 4 1 2 2 4 10 12 10 15 13 16 14 14 13 13 13 14 14 10 10 10 10 7 8 6 7 6 4 4 4 4 4 5 5 3 2 3 1 1 0 0 2 3 3 2
1 9 9 7 2 3 2 4 5 4 11 17 16 19 17 16 16 16 16 16 15 13 12 11 10 10 9 9 8 7 5 4 3 4 5 4 4 4 4 3 4 2 2 1 1 1 1 2 1
13 11 7 3 2 4 3 4 2 5 4 7 15 19 18 17 18 16 16 15 14 13 13 12 11 11 10 10 10 9 7 6 4 5 5 4 4 4 4 3 4 3 1 2 1 1 2 2 1
4 6 3 3 3 4 2 4 4 3 3 5 7 16 20 19 18 17 16 16 14 15 14 13 13 12 12 12 12 11 10 9 8 7 5 5 5 5 5 5 4 4 3 3 2 2 3 2 2
6 3 3 5 4 0 1 4 2 3 2 3 6 11 14 20 19 19 19 19 17 16 16 15 14 13 13 13 13 11 11 8 7 7 5 6 6 5 5 6 5 4 4 3 3 3 2 2 3
6 6 3 6 2 3 1 3 6 4 7 8 3 2 8 15 18 19 18 18 18 17 17 17 16 14 14 15 12 12 11 10 8 8 6 5 6 5 5 6 7 6 5 5 4 4 4 3 3
3 8 5 2 4 4 2 4 4 4 4 7 9 3 3 7 12 15 16 16 14 15 15 15 15 15 14 14 13 12 12 11 9 7 8 7 7 7 7 8 7 7 7 7 6 5 4 4 3
5 5 4 4 3 3 3 2 5 6 2 3 4 5 3 3 6 10 12 13 13 12 13 13 14 14 12 12 13 12 11 11 10 9 8 7 6 7 8 8 8 8 8 8 8 7 5 6 5
1 2 5 6 6 1 3 2 3 5 5 3 2 3 3 5 7 9 10 12 13 13 12 14 13 14 14 14 13 13 12 11 12 11 10 9 9 8 9 7 7 7 8 9 10 9 7 8 7
Wind_Direction
171 160 175 198 209 80 80 43 73 116 134 3 140 178 102 35 18 80 99 112 121 124 137 147 172 167 166 168 134 146 129 127 127 130 124 125 123 121 119 110 107 103 107 110 111 110 109 108 117
159 152 200 208 43 117 77 33 71 78 116 120 99 103 72 77 60 111 117 127 109 107 116 118 131 141 140 131 139 148 131 132 135 128 127 126 123 126 117 108 104 99 106 105 108 110 113 112 103
181 225 309 67 89 89 100 71 73 98 124 118 100 46 58 67 105 89 122 124 107 100 96 102 113 120 116 118 115 122 131 133 134 131 125 126 127 119 117 106 108 109 112 105 109 110 110 98 90
181 177 111 56 103 71 83 53 354 128 115 79 111 80 89 93 98 124 135 125 116 105 99 108 109 109 93 120 110 91 103 122 125 117 115 117 120 125 116 113 111 113 104 105 112 106 99 89 82
43 229 85 107 75 94 80 38 23 74 92 73 145 110 90 54 114 131 134 131 120 107 104 115 103 104 99 103 110 85 69 91 116 108 95 93 107 111 117 115 110 110 109 108 104 97 93 79 56
77 347 79 89 106 105 85 11 347 61 85 112 94 101 81 111 141 138 136 128 122 111 105 102 91 79 88 93 101 135 151 152 116 104 93 86 77 117 113 113 114 110 107 103 100 97 89 68 56
101 72 57 52 120 135 64 357 43 37 100 79 105 85 114 147 147 143 131 127 122 113 104 102 88 61 79 101 95 103 121 120 113 111 117 136 157 121 110 106 104 98 98 103 105 97 76 64 59
89 88 134 197 177 159 5 356 296 58 62 113 128 153 166 166 156 149 141 135 128 117 104 95 99 129 123 128 119 116 117 113 110 109 127 125 116 107 101 110 105 103 103 105 101 86 76 74 71
103 104 137 153 164 146 67 2 275 341 133 56 350 140 133 144 148 147 140 134 138 122 112 99 104 97 105 114 95 102 92 86 92 93 86 89 95 96 105 88 100 102 101 100 107 94 105 116 102
25 62 85 86 151 151 132 156 76 341 154 87 81 103 127 145 158 153 164 156 151 145 134 117 114 111 103 102 92 89 92 90 90 91 95 97 91 90 86 81 82 86 92 98 97 120 134 189 138
85 55 115 127 115 111 118 212 122 241 180 178 161 146 148 155 169 164 165 167 162 161 152 139 117 115 107 100 104 110 109 104 96 85 87 92 98 92 91 95 86 92 89 116 142 167 176 180 210
93 54 121 134 129 130 87 270 204 179 23 177 153 155 155 166 174 179 171 166 165 172 161 128 115 115 108 112 111 114 109 96 99 79 84 120 106 84 79 71 82 85 99 130 191 173 242 261 259
81 88 105 131 142 140 157 18 182 191 168 134 145 158 162 170 177 182 178 167 176 179 169 150 138 133 137 128 117 104 102 106 93 91 68 62 76 80 87 95 83 37 45 178 47 24 301 286 268
99 106 114 139 137 147 163 329 303 132 138 144 155 170 170 182 182 182 187 188 188 183 174 157 154 140 156 145 139 111 117 92 87 80 60 59 52 40 40 59 34 18 9 17 17 32 41 24 6
114 109 122 136 144 129 135 325 297 105 142 159 168 184 179 187 199 208 193 196 192 185 170 175 163 158 167 136 142 129 129 118 115 115 97 63 41 46 14 11 7 5 356 6 121 93 77 55 58
115 122 158 173 181 128 211 161 147 221 168 181 184 185 197 195 218 216 205 210 202 189 184 180 177 166 166 164 166 146 101 116 108 122 178 83 72 43 64 319 321 3 48 146 119 110 84 75 73
186 147 165 172 216 166 208 168 168 156 152 196 197 199 208 205 219 222 213 211 208 204 192 188 185 184 177 180 168 178 143 133 115 107 100 143 134 68 7 302 304 297 190 163 181 154 100 103 9
116 132 184 204 181 204 200 194 177 187 197 201 202 207 212 217 221 223 217 217 202 200 206 195 199 183 181 167 159 134 177 179 155 134 153 142 139 117 35 249 272 273 196 168 186 172 94 123 301
68 93 90 155 155 188 214 221 197 194 210 197 204 211 213 224 216 233 223 213 206 193 193 201 187 184 176 173 171 193 192 185 188 190 183 170 160 163 224 241 252 278 155 94 165 135 151 152 327
283 318 60 106 152 219 176 235 205 200 209 204 179 210 217 235 232 231 228 215 215 201 188 195 195 184 194 203 188 191 179 181 177 170 181 188 189 170 197 253 302 354 38 134 138 146 153 122 275
236 245 175 107 154 209 230 227 206 203 228 221 206 193 217 226 229 228 222 222 214 213 192 198 188 186 189 202 184 149 138 127 159 174 169 177 187 173 215 237 257 345 1 219 208 226 236 171 219
270 161 147 135 183 71 272 350 227 215 230 219 223 214 218 217 224 223 217 218 214 216 202 195 192 189 185 195 210 206 180 172 190 178 158 155 174 173 182 193 171 187 246 24 139 308 288 239 189
313 165 135 130 154 232 83 279 133 204 236 226 219 223 224 225 219 212 218 219 219 205 204 202 196 194 191 197 215 222 214 201 179 201 172 147 163 176 185 182 188 186 243 241 265 312 294 258 182
136 110 88 88 338 273 33 306 166 184 217 240 219 227 224 218 223 224 216 215 216 209 208 200 201 198 199 197 208 221 231 207 191 193 195 182 185 184 185 187 188 205 200 216 176 324 273 283 101
164 173 133 205 220 314 21 246 300 250 226 261 238 227 225 218 215 216 218 206 210 209 204 205 201 201 199 201 210 211 227 221 205 203 204 193 198 199 193 197 194 193 184 208 192 193 254 278 300
186 257 223 246 235 350 179 242 80 308 294 320 269 247 230 219 215 212 213 210 210 211 210 205 200 203 198 203 210 212 221 225 225 211 216 218 222 207 181 194 196 200 205 212 213 214 238 276 301
144 208 50 116 108 247 2 270 247 233 258 291 336 224 211 217 220 219 218 214 207 211 209 204 203 204 193 202 208 211 213 218 217 215 211 219 223 232 196 202 205 200 207 217 204 223 223 228 244
237 126 178 212 195 259 201 282 280 270 265 257 276 351 336 253 236 225 219 222 220 212 211 204 204 210 202 205 209 208 212 214 220 212 220 215 221 222 222 213 216 217 207 208 214 216 208 227 222
151 170 71 101 319 233 261 257 218 237 193 287 282 300 312 316 259 238 230 216 219 212 214 211 203 205 208 208 213 215 212 219 218 220 218 231 226 215 216 223 226 227 225 213 218 229 233 226 237
178 145 185 236 182 308 311 267 179 212 190 212 193 251 314 333 293 247 227 213 205 210 206 212 214 210 207 209 210 215 219 220 223 224 221 212 225 226 233 232 223 235 228 219 220 226 228 230 240